Farmville, Virginia, United States (23901)
Lat: 37.30N, Lon: 78.39W
Wx Zone: VAZ060
Local Info
Past Weather Observations for Today

NOTE: This archive is for the closest National Weather Service station to Farmville. Information may differ from the station used for current weather conditions.

Click here for Long-term Archive

Time Weather Temperature Dewpoint Humidity Pressure Winds Precip Visibility
10:55
Clear
82°F / 28°C 57°F / 14°C 42% 29.83 in
(1010 mb)
SSW 4.6 mph
(SSW 7 kph)
- 10SM
10:35
Clear
81°F / 27°C 57°F / 14°C 45% 29.83 in
(1010 mb)
SW 4.6 mph
(SW 7 kph)
- 10SM
10:15
Clear
79°F / 26°C 59°F / 15°C 51% 29.86 in
(1011 mb)
Calm - 10SM
09:55
Clear
79°F / 26°C 61°F / 16°C 54% 29.86 in
(1011 mb)
SW 4.6 mph
(SW 7 kph)
- 10SM
09:35
Clear
75°F / 24°C 59°F / 15°C 57% 29.86 in
(1011 mb)
NW 3.5 mph
(NW 6 kph)
- 10SM
09:15
Clear
72°F / 22°C 61°F / 16°C 69% 29.86 in
(1011 mb)
Calm - 10SM
08:55
Clear
70°F / 21°C 61°F / 16°C 73% 29.89 in
(1012 mb)
Calm - 10SM
08:35
Clear
66°F / 19°C 63°F / 17°C 88% 29.89 in
(1012 mb)
Calm - 10SM
08:15
Clear
64°F / 18°C 63°F / 17°C 94% 29.89 in
(1012 mb)
Calm - 10SM
07:55
Clear
63°F / 17°C 61°F / 16°C 94% 29.89 in
(1012 mb)
Calm - 10SM
07:35
Clear
61°F / 16°C 59°F / 15°C 94% 29.89 in
(1012 mb)
Calm - 7SM
07:15
Clear
Fog And Mist
57°F / 14°C 57°F / 14°C 100% 29.89 in
(1012 mb)
Calm - 4SM
06:55
Obscured
Fog And Mist
55°F / 13°C 54°F / 12°C 94% 29.89 in
(1012 mb)
Calm - 1 3/4SM
06:35
Clear
Fog And Mist
55°F / 13°C 55°F / 13°C 100% 29.89 in
(1012 mb)
Calm - 2SM
06:15
Clear
Fog And Mist
55°F / 13°C 54°F / 12°C 94% 29.89 in
(1012 mb)
Calm - 2SM
05:55
Clear
57°F / 14°C 57°F / 14°C 100% 29.89 in
(1012 mb)
NW 3.5 mph
(NW 6 kph)
- 7SM
05:35
Clear
Fog And Mist
55°F / 13°C 54°F / 12°C 94% 29.89 in
(1012 mb)
Calm - 2SM
05:15
Clear
Fog And Mist
55°F / 13°C 55°F / 13°C 100% 29.92 in
(1013 mb)
Calm - 3SM
04:55
Clear
57°F / 14°C 57°F / 14°C 100% 29.89 in
(1012 mb)
Calm - 7SM
04:35
Partly Cloudy
57°F / 14°C 57°F / 14°C 100% 29.89 in
(1012 mb)
Calm - 7SM
04:15
Mostly Cloudy
Fog
55°F / 13°C 55°F / 13°C 100% 29.92 in
(1013 mb)
Calm - 1/2SM
03:55
Clear
Fog And Mist
55°F / 13°C 55°F / 13°C 100% 29.92 in
(1013 mb)
Calm - 3SM
03:35
Clear
Fog And Mist
57°F / 14°C 57°F / 14°C 100% 29.92 in
(1013 mb)
Calm - 5SM
03:15
Partly Cloudy
Fog And Mist
57°F / 14°C 57°F / 14°C 100% 29.92 in
(1013 mb)
Calm - 5SM
02:55
Mostly Cloudy
Fog
59°F / 15°C 57°F / 14°C 94% 29.95 in
(1014 mb)
Calm - 1/2SM
02:35
Mostly Cloudy
Fog And Mist
57°F / 14°C 55°F / 13°C 94% 29.95 in
(1014 mb)
Calm - 2SM
02:15
Partly Cloudy
Fog And Mist
57°F / 14°C 57°F / 14°C 100% 29.95 in
(1014 mb)
Calm - 2 1/2SM
01:55
Clear
Fog And Mist
59°F / 15°C 57°F / 14°C 94% 29.95 in
(1014 mb)
Calm - 5SM
01:35
Clear
Fog And Mist
57°F / 14°C 57°F / 14°C 100% 29.95 in
(1014 mb)
Calm - 3SM
01:15
Clear
Fog And Mist
61°F / 16°C 61°F / 16°C 100% 29.98 in
(1015 mb)
Calm - 5SM
00:55
Clear
61°F / 16°C 61°F / 16°C 100% 29.98 in
(1015 mb)
Calm - 10SM
00:35
Clear
63°F / 17°C 63°F / 17°C 100% 30.01 in
(1016 mb)
N 3.5 mph
(N 6 kph)
- 10SM
00:15
Clear
63°F / 17°C 63°F / 17°C 100% 30.01 in
(1016 mb)
NW 4.6 mph
(NW 7 kph)
- 10SM
Time Weather Temperature Dewpoint Humidity Pressure Winds Precip Visibility


Weather for websites

WeatherForYou.com, LLC is not responsible for any damages or problems caused by this service. Current weather conditions are obtained from the closest station including government and personal stations which may have varying degrees of accuracy. Weather forecasts are derived from the NOAA NDFD. Like all things, this site belongs to Jesus Christ... He just trusts me to maintain it. If you have any questions or comments email webmaster@weatherforyou.com

Copyright © 2014, WeatherForYou.com LLC. All rights reserved.